Doylestown, PA

6:29 AM EST on December 11, 2019 (GMT -0500)
Doylestown

Weather History for KDYL - October, 2019

Change the Weather History Date:

Thursday, October 3, 2019

  Actual Average (KTTN) Record (KTTN)
Temperature  
Mean Temperature 64 °F -  
Max Temperature 69 °F 66 °F 88 °F (1898)
Min Temperature 55 °F 46 °F 34 °F (2003)
Degree Days  
Heating Degree Days 2    
Growing Degree Days 14 (Base 50)    
Moisture  
Dew Point 57 °F    
Average Humidity 91    
Maximum Humidity 93    
Minimum Humidity 81    
Precipitation  
Precipitation 0.03 in - - ()
Sea Level Pressure  
Sea Level Pressure 30.02 in    
Wind  
Wind Speed 6 mph (NE)    
Max Wind Speed 10 mph    
Max Gust Speed 17 mph    
Visibility 7 miles    
Events Rain    
Averages and records for this station are not official NWS values.
T = Trace of Precipitation, MM = Missing Value Source: NWS Daily Summary

Daily Weather History Graph

Daily Weather History Graph

Search for Another Location

Airport or City:

Astronomy

Oct. 03, 2019 Rise Set
Actual Time 6:58 AM EDT 6:39 PM EDT
Civil Twilight 6:31 AM EDT 7:06 PM EDT
Nautical Twilight 5:59 AM EDT 7:38 PM EDT
Astronomical Twilight 5:28 AM EDT 8:10 PM EDT
Moon 12:28 PM EDT (10/3) 10:16 PM EDT (10/3)
Length of Visible Light 12h 35m
Length of Day
11h 41m
Waxing Crescent, 29% of the Moon is Illuminated
Oct 3
Waxing Crescent
Oct 5
First Quarter
Oct 13
Full
Oct 21
Last Quarter
Oct 27
New

Hourly Weather History & Observations

Time (EDT) Temp. Dew Point Humidity Pressure Visibility Wind Dir Wind Speed Gust Speed Precip Events Conditions
12:10 AM 72.0 °F 66.0 °F 81% 29.95 in 10.0 mi NE 8.1 mph - N/A   Overcast
12:54 AM 69.1 °F 64.0 °F 84% 29.94 in 10.0 mi NE 8.1 mph - 0.00 in   Overcast
1:54 AM 66.0 °F 61.0 °F 84% 29.96 in 10.0 mi NE 9.2 mph 16.1 mph 0.02 in Rain Light Rain
2:11 AM 64.9 °F 61.0 °F 87% 29.98 in 10.0 mi NE 5.8 mph - 0.01 in Rain Light Rain
2:43 AM 64.0 °F 61.0 °F 90% 29.98 in 10.0 mi NE 4.6 mph - 0.01 in Rain Light Rain
2:54 AM 64.0 °F 61.0 °F 90% 29.96 in 10.0 mi NE 5.8 mph - 0.01 in Rain Light Rain
3:09 AM 63.0 °F 61.0 °F 93% 29.97 in 9.0 mi NE 8.1 mph - 0.00 in Rain Light Rain
3:32 AM 62.1 °F 59.0 °F 90% 29.98 in 10.0 mi NE 9.2 mph - 0.00 in   Overcast
3:54 AM 61.0 °F 57.9 °F 90% 29.97 in 10.0 mi NE 8.1 mph - 0.00 in   Overcast
4:54 AM 59.0 °F 55.9 °F 90% 30.00 in 9.0 mi NE 9.2 mph - 0.00 in Rain Light Rain
5:54 AM 57.0 °F 55.0 °F 93% 30.03 in 6.0 mi NNE 10.4 mph 17.3 mph 0.00 in Rain Light Rain
6:17 AM 57.0 °F 55.0 °F 93% 30.05 in 7.0 mi Variable 6.9 mph - 0.00 in Rain Light Rain
6:54 AM 57.0 °F 54.0 °F 89% 30.06 in 10.0 mi NNE 5.8 mph - 0.00 in Rain Light Rain
7:10 AM 55.9 °F 54.0 °F 93% 30.07 in 9.0 mi NE 6.9 mph - 0.00 in Rain Light Rain
7:54 AM 55.9 °F 54.0 °F 93% 30.08 in 8.0 mi NNE 5.8 mph - 0.00 in Rain Light Rain
8:54 AM 55.9 °F 54.0 °F 93% 30.09 in 7.0 mi NE 5.8 mph - 0.00 in Rain Light Rain
9:54 AM 55.9 °F 54.0 °F 93% 30.09 in 5.0 mi NE 6.9 mph - 0.00 in   Overcast
10:54 AM 57.0 °F 55.0 °F 93% 30.09 in 5.0 mi Variable 3.5 mph - 0.00 in Rain Light Rain
11:02 AM 57.0 °F 55.0 °F 93% 30.09 in 7.0 mi North - - 0.00 in Rain Light Rain
11:54 AM 57.0 °F 55.0 °F 93% 30.09 in 6.0 mi NE 4.6 mph - 0.00 in   Overcast
12:54 PM 57.0 °F 54.0 °F 89% 30.08 in 5.0 mi ENE 5.8 mph - 0.00 in   Overcast
1:54 PM 57.9 °F 55.0 °F 90% 30.07 in 6.0 mi Variable 4.6 mph - N/A   Overcast
2:44 PM 57.0 °F 55.0 °F 93% 30.07 in 5.0 mi Variable 4.6 mph - N/A   Overcast
2:54 PM 57.0 °F 55.0 °F 93% 30.06 in 5.0 mi Variable 3.5 mph - N/A   Overcast
3:37 PM 57.0 °F 55.0 °F 93% 30.05 in 5.0 mi Variable 4.6 mph - 0.00 in   Overcast
3:54 PM 57.9 °F 55.0 °F 90% 30.05 in 5.0 mi NE 3.5 mph - 0.00 in   Overcast
4:07 PM 57.9 °F 55.0 °F 90% 30.05 in 5.0 mi NE 3.5 mph - N/A   Overcast
4:54 PM 57.9 °F 55.0 °F 90% 30.04 in 5.0 mi Calm Calm - N/A   Overcast
5:54 PM 57.0 °F 55.0 °F 93% 30.03 in 4.0 mi Calm Calm - N/A   Overcast
6:54 PM 57.9 °F 55.9 °F 93% 30.01 in 7.0 mi Calm Calm - N/A   Overcast
7:40 PM 59.0 °F 55.9 °F 90% 30.00 in 4.0 mi Calm Calm - N/A   Overcast
7:54 PM 59.0 °F 57.0 °F 93% 30.00 in 5.0 mi Calm Calm - N/A   Overcast
8:16 PM 59.0 °F 57.0 °F 93% 30.00 in 5.0 mi Calm Calm - N/A   Overcast
8:54 PM 59.0 °F 57.0 °F 93% 29.99 in 4.0 mi Calm Calm - N/A   Overcast
9:17 PM 59.0 °F 57.0 °F 93% 29.98 in 5.0 mi Calm Calm - N/A   Overcast
9:29 PM 59.0 °F 57.0 °F 93% 29.98 in 4.0 mi North 3.5 mph - N/A   Overcast
9:54 PM 59.0 °F 57.0 °F 93% 29.98 in 4.0 mi NE 5.8 mph - N/A   Overcast
10:44 PM 59.0 °F 57.0 °F 93% 29.97 in 5.0 mi NNE 4.6 mph - 0.00 in Rain Light Rain
10:54 PM 59.0 °F 57.0 °F 93% 29.97 in 5.0 mi Calm Calm - 0.00 in   Overcast
11:06 PM 59.0 °F 57.0 °F 93% 29.96 in 4.0 mi Calm Calm - 0.00 in Rain Light Rain
11:15 PM 59.0 °F 57.0 °F 93% 29.96 in 6.0 mi North 3.5 mph - 0.00 in Rain Light Rain
11:31 PM 59.0 °F 57.0 °F 93% 29.97 in 6.0 mi North 4.6 mph - 0.00 in   Overcast
11:54 PM 59.0 °F 57.0 °F 93% 29.96 in 6.0 mi North 4.6 mph - 0.00 in   Overcast